Change the Weather History Date:

Thursday, September 25, 2014

  Actual Average Record
Temperature  
Mean Temperature 93 °F 83 °F  
Max Temperature 103 °F 97 °F 114 °F (1947)
Min Temperature 82 °F 70 °F 48 °F (1941)
Degree Days  
Heating Degree Days 0 0  
Month to date heating degree days 0 0  
Since 1 July heating degree days 0 0  
Cooling Degree Days 28 18  
Month to date cooling degree days 678 557  
Year to date cooling degree days 4275 3641  
Growing Degree Days 41 (Base 50)    
Moisture  
Dew Point 58 °F    
Average Humidity 34    
Maximum Humidity 40    
Minimum Humidity 27    
Precipitation  
Precipitation 0.00 in 0.00 in 1.58 in (1997)
Month to date precipitation 0.04 0.34  
Year to date precipitation 1.94 3.87  
Since 1 July precipitation 1.19 0.93  
Snow  
Snow 0.00 in - - ()
Month to date snowfall 0.0  
Year to date snowfall 0.0  
Since 1 July snowfall 0.0  
Snow Depth 0.00 in    
Sea Level Pressure  
Sea Level Pressure 29.81 in    
Wind  
Wind Speed 5 mph (NE)    
Max Wind Speed 14 mph    
Max Gust Speed 22 mph    
Visibility 10 miles    
Events      
T = Trace of Precipitation, MM = Missing Value Source: NWS Daily Summary

Daily Weather History Graph

Daily Weather History Graph

Search for Another Location

Airport or City:

Trip Planner

Search our weather history database for the weather conditions in past years. The results will help you decide how hot, cold, wet, or windy it might be!

Date:

Astronomy

Sep. 25, 2014 Rise Set
Actual Time 6:36 AM PDT 6:38 PM PDT
Civil Twilight 6:11 AM PDT 7:03 PM PDT
Nautical Twilight 5:42 AM PDT 7:32 PM PDT
Astronomical Twilight 5:13 AM PDT 8:01 PM PDT
Moon 7:53 AM PDT (9/25) 7:31 PM PDT (9/25)
Length of Visible Light 12h 51m
Length of Day
12h 02m
New Moon, 2% of the Moon is Illuminated
Sep 25
New Moon
Oct 1
First Quarter
Oct 8
Full
Oct 15
Last Quarter
Oct 23
New

Hourly Weather History & Observations

Time (PDT) Temp. Heat Index Dew Point Humidity Pressure Visibility Wind Dir Wind Speed Gust Speed Precip Events Conditions
12:53 AM 86.0 °F 84.7 °F 55.9 °F 36% 29.81 in 10.0 mi Calm Calm - N/A   Partly Cloudy
1:53 AM 89.1 °F 86.7 °F 53.1 °F 29% 29.81 in 10.0 mi Calm Calm - N/A   Clear
2:53 AM 84.9 °F 83.6 °F 55.0 °F 36% 29.80 in 10.0 mi Calm Calm - N/A   Clear
3:53 AM 86.0 °F 84.0 °F 53.1 °F 32% 29.81 in 10.0 mi North 4.6 mph - N/A   Clear
4:53 AM 84.0 °F 82.9 °F 55.0 °F 37% 29.81 in 10.0 mi North 3.5 mph - N/A   Clear
5:53 AM 82.9 °F 82.1 °F 55.9 °F 39% 29.82 in 10.0 mi Calm Calm - N/A   Clear
6:53 AM 84.9 °F - 52.0 °F 32% 29.83 in 10.0 mi Calm Calm - N/A   Clear
7:53 AM 84.9 °F 83.9 °F 57.0 °F 38% 29.85 in 10.0 mi WSW 5.8 mph - N/A   Partly Cloudy
8:53 AM 91.9 °F 89.5 °F 54.0 °F 27% 29.88 in 10.0 mi East 13.8 mph - N/A   Clear
9:53 AM 91.0 °F 91.5 °F 62.1 °F 38% 29.90 in 10.0 mi East 8.1 mph - N/A   Clear
10:53 AM 93.9 °F 95.2 °F 63.0 °F 36% 29.90 in 10.0 mi East 8.1 mph - N/A   Clear
11:53 AM 97.0 °F 98.3 °F 63.0 °F 32% 29.88 in 10.0 mi East 8.1 mph - N/A   Clear
12:53 PM 99.0 °F 98.6 °F 59.0 °F 26% 29.85 in 10.0 mi ESE 8.1 mph - N/A   Clear
1:53 PM 100.0 °F 101.2 °F 61.0 °F 28% 29.82 in 10.0 mi ESE 5.8 mph - N/A   Scattered Clouds
2:53 PM 100.9 °F 102.1 °F 61.0 °F 27% 29.79 in 10.0 mi ESE 6.9 mph - N/A   Clear
3:53 PM 100.9 °F 103.3 °F 63.0 °F 29% 29.78 in 10.0 mi ESE 8.1 mph - N/A   Partly Cloudy
4:53 PM 100.9 °F 103.3 °F 63.0 °F 29% 29.76 in 10.0 mi Variable 5.8 mph - N/A   Scattered Clouds
5:53 PM 100.0 °F 103.6 °F 64.9 °F 32% 29.75 in 10.0 mi ESE 5.8 mph - N/A   Clear
6:53 PM 99.0 °F 99.5 °F 61.0 °F 28% 29.75 in 10.0 mi North 9.2 mph - N/A   Scattered Clouds
7:53 PM 97.0 °F 96.1 °F 57.9 °F 27% 29.76 in 10.0 mi NW 8.1 mph - N/A   Partly Cloudy
8:53 PM 95.0 °F 94.0 °F 57.9 °F 29% 29.78 in 10.0 mi NW 12.7 mph - N/A   Clear
9:53 PM 93.9 °F 92.6 °F 57.0 °F 29% 29.78 in 10.0 mi NW 18.4 mph 21.9 mph N/A   Clear
10:53 PM 91.9 °F 90.8 °F 57.9 °F 32% 29.79 in 10.0 mi NW 9.2 mph - N/A   Clear
11:53 PM 90.0 °F 88.8 °F 57.9 °F 34% 29.79 in 10.0 mi NW 3.5 mph - N/A   Clear